TRA49E GMMX-EHRD

Flight info

Callsign TRA49E
Flight time N/A
Altitude 38000
Route MABAP UR722 SAK UG5 KORIS L27 VJF N10 HIJ Z230 TLD N858 ABRIX DCT ETPAR DCT BOKNO UN858 VANAD UN874 BAMES UT191 PODEM DCT MATID DCT BELOB UY873 DENUT
Aircraft B738/M-SDE2E3FGHIJ1RWXYZ/LB1

Departure

Time 2026-04-30 12:11
Airport Marrakesh Menara Airport (GMMX)

Arrival

Time N/A
Airport Rotterdam The Hague Airport (EHRD)
Time Latitude Longitude Altitude Speed Heading
2026-04-30 11:49 31.60340 -8.02541 1539 ft 0 kts 186°
2026-04-30 12:02 31.60344 -8.02541 1539 ft 2 kts 186°
2026-04-30 12:03 31.60359 -8.02539 1536 ft 2 kts 186°
2026-04-30 12:03 31.60389 -8.02535 1539 ft 2 kts 186°
2026-04-30 12:03 31.60404 -8.02533 1539 ft 2 kts 171°
2026-04-30 12:04 31.60418 -8.02537 1536 ft 2 kts 137°
2026-04-30 12:04 31.60427 -8.02551 1531 ft 2 kts 102°
2026-04-30 12:04 31.60429 -8.02556 1539 ft 0 kts 98°
2026-04-30 12:06 31.60428 -8.02549 1539 ft 3 kts 98°
2026-04-30 12:06 31.60422 -8.02512 1539 ft 7 kts 101°
2026-04-30 12:06 31.60412 -8.02433 1539 ft 13 kts 96°
2026-04-30 12:06 31.60402 -8.02310 1539 ft 16 kts 96°
2026-04-30 12:07 31.60388 -8.02178 1534 ft 16 kts 97°
2026-04-30 12:07 31.60385 -8.02065 1534 ft 11 kts 65°
2026-04-30 12:07 31.60444 -8.02036 1534 ft 0 kts
2026-04-30 12:07 31.60445 -8.02036 1538 ft 0 kts
2026-04-30 12:08 31.60446 -8.02036 1538 ft 0 kts
2026-04-30 12:08 31.60448 -8.02036 1538 ft 1 kts
2026-04-30 12:08 31.60465 -8.02033 1534 ft 7 kts
2026-04-30 12:08 31.60524 -8.02029 1537 ft 9 kts 347°
2026-04-30 12:09 31.60552 -8.02086 1537 ft 5 kts 280°
2026-04-30 12:09 31.60552 -8.02087 1537 ft 0 kts 280°
2026-04-30 12:10 31.60553 -8.02090 1537 ft 1 kts 280°
2026-04-30 12:10 31.60553 -8.02094 1537 ft 1 kts 278°
2026-04-30 12:10 31.60554 -8.02108 1532 ft 8 kts 272°
2026-04-30 12:10 31.60577 -8.02378 1538 ft 63 kts 276°
2026-04-30 12:11 31.60640 -8.03117 1541 ft 118 kts 277°
2026-04-30 12:11 31.60747 -8.04254 1558 ft 159 kts 275°
2026-04-30 12:11 31.60869 -8.05569 2031 ft 166 kts 276°
2026-04-30 12:11 31.60952 -8.06471 2410 ft 168 kts 275°
2026-04-30 12:12 31.61053 -8.07882 2871 ft 183 kts 274°
2026-04-30 12:12 31.61180 -8.09460 3174 ft 205 kts 276°
2026-04-30 12:12 31.61312 -8.11214 3566 ft 228 kts 275°
2026-04-30 12:12 31.61484 -8.13143 4230 ft 243 kts 276°
2026-04-30 12:13 31.61782 -8.15765 5553 ft 248 kts 287°
2026-04-30 12:13 31.62248 -8.17020 6197 ft 250 kts 303°
2026-04-30 12:13 31.63462 -8.18469 7163 ft 253 kts 328°
2026-04-30 12:13 31.65096 -8.19145 8052 ft 257 kts 355°
2026-04-30 12:14 31.66880 -8.18928 8946 ft 261 kts 12°
2026-04-30 12:14 31.68658 -8.18404 9777 ft 266 kts 15°
2026-04-30 12:14 31.70461 -8.17816 10583 ft 271 kts 14°
2026-04-30 12:14 31.72292 -8.17230 11382 ft 275 kts 13°
2026-04-30 12:15 31.74161 -8.16660 12119 ft 281 kts 12°
2026-04-30 12:15 31.76078 -8.16091 12800 ft 288 kts 13°
2026-04-30 12:15 31.78043 -8.15513 13478 ft 294 kts 12°
2026-04-30 12:15 31.80057 -8.15295 14183 ft 297 kts 355°
2026-04-30 12:16 31.82146 -8.15516 14744 ft 308 kts 352°
2026-04-30 12:16 31.84323 -8.15813 15197 ft 322 kts 351°
2026-04-30 12:16 31.86598 -8.16149 15623 ft 337 kts 351°
2026-04-30 12:16 31.88977 -8.16493 16015 ft 352 kts 352°
2026-04-30 12:17 31.94020 -8.17177 16922 ft 374 kts 352°
2026-04-30 12:17 31.96612 -8.17525 17587 ft 376 kts 352°
2026-04-30 12:17 32.00075 -8.18005 18472 ft 380 kts 352°
2026-04-30 12:18 32.01821 -8.18248 18906 ft 383 kts 352°
2026-04-30 12:18 32.04479 -8.18617 19551 ft 387 kts 352°
2026-04-30 12:18 32.07160 -8.18988 20180 ft 390 kts 352°
2026-04-30 12:18 32.09873 -8.19361 20768 ft 394 kts 351°
2026-04-30 12:19 32.12626 -8.19566 21317 ft 400 kts
2026-04-30 12:19 32.15416 -8.19238 21886 ft 405 kts
2026-04-30 12:19 32.18221 -8.18807 22425 ft 409 kts
2026-04-30 12:19 32.21050 -8.18338 22939 ft 412 kts
2026-04-30 12:20 32.23903 -8.17855 23420 ft 416 kts
2026-04-30 12:20 32.26785 -8.17379 23900 ft 420 kts
2026-04-30 12:20 32.29653 -8.16918 24360 ft 423 kts
2026-04-30 12:20 32.32581 -8.16451 24801 ft 426 kts
2026-04-30 12:21 32.35533 -8.15972 25243 ft 430 kts
2026-04-30 12:21 32.38508 -8.15484 25670 ft 433 kts
2026-04-30 12:21 32.41504 -8.14992 26082 ft 436 kts
2026-04-30 12:21 32.44520 -8.14499 26484 ft 439 kts
2026-04-30 12:22 32.47556 -8.14006 26864 ft 442 kts
2026-04-30 12:22 32.50613 -8.13510 27266 ft 444 kts
2026-04-30 12:22 32.53682 -8.13011 27648 ft 446 kts
2026-04-30 12:22 32.56729 -8.12514 27996 ft 449 kts
2026-04-30 12:23 32.59834 -8.12005 28354 ft 452 kts
2026-04-30 12:23 32.62958 -8.11493 28700 ft 454 kts
2026-04-30 12:23 32.66099 -8.10981 28993 ft 457 kts
2026-04-30 12:23 32.69259 -8.10464 29289 ft 460 kts
2026-04-30 12:24 32.72439 -8.09944 29597 ft 462 kts
2026-04-30 12:24 32.75635 -8.09418 29889 ft 465 kts
2026-04-30 12:24 32.78845 -8.08890 30173 ft 467 kts
2026-04-30 12:24 32.82072 -8.08361 30419 ft 470 kts
2026-04-30 12:25 32.85280 -8.07835 30620 ft 473 kts
2026-04-30 12:25 32.88552 -8.07296 30903 ft 475 kts
2026-04-30 12:25 32.91814 -8.06631 31195 ft 477 kts 12°
2026-04-30 12:25 32.94961 -8.05351 31496 ft 480 kts 23°
2026-04-30 12:26 32.97935 -8.03541 31813 ft 480 kts 27°
2026-04-30 12:26 33.00873 -8.01638 32115 ft 481 kts 28°
2026-04-30 12:26 33.03795 -7.99686 32413 ft 482 kts 28°
2026-04-30 12:26 33.06714 -7.97728 32681 ft 482 kts 28°
2026-04-30 12:27 33.09650 -7.95786 32926 ft 483 kts 28°
2026-04-30 12:27 33.12563 -7.93883 33186 ft 484 kts 28°
2026-04-30 12:27 33.15519 -7.91954 33465 ft 484 kts 28°
2026-04-30 12:27 33.18472 -7.90016 33738 ft 485 kts 28°
2026-04-30 12:28 33.21425 -7.88066 34025 ft 485 kts 28°
2026-04-30 12:28 33.24376 -7.86108 34316 ft 485 kts 28°
2026-04-30 12:28 33.27328 -7.84151 34610 ft 485 kts 28°
2026-04-30 12:28 33.30280 -7.82202 34903 ft 485 kts 28°
2026-04-30 12:29 33.33234 -7.80254 35193 ft 484 kts 28°
2026-04-30 12:29 33.36178 -7.78307 35485 ft 484 kts 28°
2026-04-30 12:29 33.39079 -7.76383 35785 ft 483 kts 28°
2026-04-30 12:29 33.42013 -7.74434 36073 ft 482 kts 28°
2026-04-30 12:30 33.44945 -7.72486 36348 ft 482 kts 28°
2026-04-30 12:30 33.47877 -7.70540 36618 ft 481 kts 28°
2026-04-30 12:30 33.50801 -7.68599 36917 ft 480 kts 28°
2026-04-30 12:30 33.53713 -7.66682 37295 ft 475 kts 27°
2026-04-30 12:31 33.56644 -7.64872 37634 ft 472 kts 25°
2026-04-30 12:31 33.59609 -7.63139 37700 ft 477 kts 25°
2026-04-30 12:31 33.65575 -7.59624 37788 ft 485 kts 26°
2026-04-30 12:32 33.71623 -7.55885 37970 ft 491 kts 26°
2026-04-30 12:32 33.77746 -7.52157 38060 ft 497 kts 26°
2026-04-30 12:33 33.83929 -7.48419 38076 ft 497 kts 26°
2026-04-30 12:33 33.90084 -7.44649 38074 ft 495 kts 26°
2026-04-30 12:34 33.96159 -7.40932 38080 ft 491 kts 26°
2026-04-30 12:34 34.02239 -7.37216 38079 ft 489 kts 26°
2026-04-30 12:35 34.08299 -7.33497 38075 ft 489 kts 26°
2026-04-30 12:35 34.14366 -7.29769 38076 ft 490 kts 26°
2026-04-30 12:36 34.20396 -7.26061 38075 ft 489 kts 26°
2026-04-30 12:36 34.26464 -7.22319 38069 ft 490 kts 26°
2026-04-30 12:37 34.32536 -7.18571 38068 ft 490 kts 26°
2026-04-30 12:37 34.38602 -7.14820 38068 ft 490 kts 26°
2026-04-30 12:38 34.44670 -7.11060 38067 ft 490 kts 26°
2026-04-30 12:38 34.50694 -7.07323 38068 ft 490 kts 26°
2026-04-30 12:39 34.56761 -7.03552 38067 ft 490 kts 26°
2026-04-30 12:39 34.62837 -6.99779 38072 ft 491 kts 26°
2026-04-30 12:40 34.68942 -6.96060 38079 ft 491 kts 26°
2026-04-30 12:40 34.75004 -6.92354 38076 ft 491 kts 26°
2026-04-30 12:41 34.81098 -6.88596 38076 ft 491 kts 26°
2026-04-30 12:41 34.87189 -6.84851 38077 ft 491 kts 26°
2026-04-30 12:42 34.93285 -6.81096 38076 ft 491 kts 26°
2026-04-30 12:42 34.99338 -6.77357 38076 ft 491 kts 26°
2026-04-30 12:43 35.05432 -6.73588 38078 ft 491 kts 26°
2026-04-30 12:43 35.11518 -6.69816 38081 ft 491 kts 26°
2026-04-30 12:44 35.17606 -6.66039 38085 ft 491 kts 26°
2026-04-30 12:44 35.23700 -6.62250 38085 ft 491 kts 26°
2026-04-30 12:45 35.29744 -6.58486 38091 ft 491 kts 26°
2026-04-30 12:45 35.35832 -6.54688 38086 ft 491 kts 26°
2026-04-30 12:46 35.41921 -6.50883 38089 ft 491 kts 26°
2026-04-30 12:46 35.47999 -6.47044 38088 ft 491 kts 27°
2026-04-30 12:47 35.54018 -6.43071 38086 ft 491 kts 27°
2026-04-30 12:47 35.60012 -6.39141 38087 ft 493 kts 27°
2026-04-30 12:48 35.66069 -6.35210 38085 ft 492 kts 27°
2026-04-30 12:48 35.72112 -6.31240 38089 ft 492 kts 27°
2026-04-30 12:49 35.78160 -6.27277 38089 ft 492 kts 27°
2026-04-30 12:49 35.84231 -6.23338 38084 ft 494 kts 26°
2026-04-30 12:50 35.90317 -6.19406 38085 ft 493 kts 26°
2026-04-30 12:50 35.96357 -6.15513 38083 ft 493 kts 26°
2026-04-30 12:51 36.02428 -6.11567 38084 ft 493 kts 27°
2026-04-30 12:51 36.08501 -6.07614 38087 ft 494 kts 26°
2026-04-30 12:52 36.14582 -6.03658 38083 ft 494 kts 27°
2026-04-30 12:52 36.20652 -5.99695 38092 ft 493 kts 26°
2026-04-30 12:53 36.27057 -5.97017 38106 ft 488 kts
2026-04-30 12:53 36.33775 -5.95768 38097 ft 489 kts
2026-04-30 12:54 36.40518 -5.94630 38095 ft 489 kts
2026-04-30 12:54 36.47252 -5.93424 38096 ft 488 kts
2026-04-30 12:55 36.53920 -5.92222 38089 ft 487 kts
2026-04-30 12:55 36.60615 -5.91041 38088 ft 485 kts
2026-04-30 12:56 36.67301 -5.89846 38089 ft 485 kts
2026-04-30 12:56 36.73985 -5.88647 38092 ft 485 kts
2026-04-30 12:57 36.80662 -5.87453 38093 ft 484 kts
2026-04-30 12:57 36.87281 -5.86264 38089 ft 483 kts
2026-04-30 12:58 36.93933 -5.85068 38093 ft 483 kts
2026-04-30 12:58 37.00577 -5.83871 38094 ft 482 kts
2026-04-30 12:59 37.07215 -5.82674 38092 ft 481 kts
2026-04-30 12:59 37.13788 -5.81485 38093 ft 480 kts
2026-04-30 13:00 37.20404 -5.80287 38088 ft 480 kts
2026-04-30 13:00 37.27018 -5.79088 38092 ft 480 kts
2026-04-30 13:01 37.33618 -5.77889 38091 ft 479 kts
2026-04-30 13:01 37.40211 -5.76673 38087 ft 479 kts
2026-04-30 13:02 37.46463 -5.73998 38106 ft 480 kts 25°
2026-04-30 13:02 37.52492 -5.70377 38087 ft 480 kts 26°
2026-04-30 13:03 37.58492 -5.66696 38092 ft 479 kts 26°
2026-04-30 13:03 37.64501 -5.63068 38092 ft 478 kts 25°
2026-04-30 13:04 37.70462 -5.59454 38093 ft 479 kts 26°
2026-04-30 13:04 37.76461 -5.55792 38089 ft 479 kts 26°
2026-04-30 13:05 37.82460 -5.52135 38086 ft 479 kts 26°
2026-04-30 13:06 37.91459 -5.46635 38079 ft 479 kts 26°
2026-04-30 13:06 37.97454 -5.42960 38084 ft 479 kts 26°
2026-04-30 13:07 38.03409 -5.39309 38088 ft 478 kts 26°
2026-04-30 13:07 38.09389 -5.35631 38088 ft 477 kts 26°
2026-04-30 13:08 38.15359 -5.31954 38081 ft 477 kts 26°
2026-04-30 13:08 38.21342 -5.28261 38078 ft 479 kts 26°
2026-04-30 13:09 38.27289 -5.24583 38081 ft 478 kts 25°
2026-04-30 13:09 38.33267 -5.20883 38084 ft 478 kts 25°
2026-04-30 13:10 38.39246 -5.17170 38080 ft 478 kts 25°
2026-04-30 13:10 38.45233 -5.13448 38078 ft 479 kts 25°
2026-04-30 13:11 38.51217 -5.09728 38078 ft 478 kts 25°
2026-04-30 13:11 38.57316 -5.06501 38078 ft 478 kts 19°
2026-04-30 13:12 38.63553 -5.03554 38080 ft 478 kts 20°
2026-04-30 13:12 38.69718 -5.00306 38087 ft 479 kts 21°
2026-04-30 13:13 38.78985 -4.95537 38093 ft 478 kts 20°
2026-04-30 13:14 38.88204 -4.90797 38094 ft 478 kts 21°
2026-04-30 13:14 38.97462 -4.86007 38094 ft 479 kts 20°
2026-04-30 13:15 39.06728 -4.81212 38097 ft 478 kts 20°
2026-04-30 13:16 39.12859 -4.78025 38094 ft 479 kts 20°
2026-04-30 13:16 39.19029 -4.74817 38092 ft 478 kts 20°
2026-04-30 13:17 39.28286 -4.69991 38093 ft 478 kts 20°
2026-04-30 13:18 39.37493 -4.65177 38100 ft 478 kts 20°
2026-04-30 13:18 39.46738 -4.60331 38099 ft 478 kts 20°
2026-04-30 13:19 39.52907 -4.57088 38108 ft 478 kts 20°
2026-04-30 13:19 39.59062 -4.53847 38110 ft 477 kts 20°
2026-04-30 13:20 39.65178 -4.50620 38108 ft 478 kts 20°
2026-04-30 13:20 39.71345 -4.47360 38105 ft 478 kts 20°
2026-04-30 13:21 39.77502 -4.44098 38108 ft 478 kts 20°
2026-04-30 13:22 39.86752 -4.39182 38117 ft 479 kts 20°
2026-04-30 13:22 39.95945 -4.34276 38120 ft 478 kts 20°
2026-04-30 13:23 40.05029 -4.28868 38119 ft 480 kts 24°
2026-04-30 13:24 40.17107 -4.21466 38118 ft 479 kts 22°
2026-04-30 13:25 40.29131 -4.14064 38120 ft 479 kts 22°
2026-04-30 13:26 40.44177 -4.04814 38128 ft 479 kts 22°
2026-04-30 13:28 40.59256 -3.95484 38139 ft 479 kts 22°
2026-04-30 13:28 40.68289 -3.89869 38134 ft 478 kts 22°
2026-04-30 13:29 40.80247 -3.82416 38147 ft 477 kts 22°
2026-04-30 13:31 40.95230 -3.73030 38146 ft 476 kts 22°
2026-04-30 13:32 41.10129 -3.63655 38134 ft 476 kts 21°
2026-04-30 13:33 41.22189 -3.56547 38140 ft 473 kts 16°
2026-04-30 13:34 41.31323 -3.51709 38146 ft 473 kts 19°
2026-04-30 13:35 41.43473 -3.45001 38135 ft 472 kts 18°
2026-04-30 13:36 41.55561 -3.38345 38141 ft 472 kts 18°
2026-04-30 13:36 41.64675 -3.33317 38134 ft 472 kts 18°
2026-04-30 13:37 41.73769 -3.28275 38148 ft 472 kts 18°
2026-04-30 13:38 41.82830 -3.23240 38134 ft 472 kts 18°
2026-04-30 13:39 41.94932 -3.16489 38132 ft 471 kts 18°
2026-04-30 13:40 42.03968 -3.11429 38145 ft 471 kts 18°
2026-04-30 13:40 42.10016 -3.08034 38150 ft 470 kts 18°
2026-04-30 13:41 42.16052 -3.04641 38126 ft 469 kts 18°
2026-04-30 13:41 42.22071 -3.01247 38135 ft 469 kts 18°
2026-04-30 13:42 42.28057 -2.97867 38133 ft 470 kts 18°
2026-04-30 13:42 42.37111 -2.92741 38128 ft 470 kts 18°
2026-04-30 13:43 42.43124 -2.89326 38114 ft 468 kts 18°
2026-04-30 13:43 42.48971 -2.85344 38109 ft 473 kts 24°
2026-04-30 13:44 42.54727 -2.81000 38105 ft 474 kts 25°
2026-04-30 13:44 42.60435 -2.76664 38101 ft 473 kts 25°
2026-04-30 13:45 42.69053 -2.70147 38099 ft 473 kts 25°
2026-04-30 13:46 42.74800 -2.65775 38094 ft 474 kts 25°
2026-04-30 13:46 42.80512 -2.61424 38090 ft 474 kts 25°
2026-04-30 13:47 42.86258 -2.57040 38092 ft 473 kts 25°
2026-04-30 13:47 42.91995 -2.52651 38089 ft 473 kts 25°
2026-04-30 13:48 42.97726 -2.48257 38090 ft 472 kts 26°
2026-04-30 13:48 43.03421 -2.43882 38093 ft 473 kts 26°
2026-04-30 13:49 43.09153 -2.39471 38097 ft 473 kts 26°
2026-04-30 13:49 43.14881 -2.35049 38073 ft 472 kts 26°
2026-04-30 13:50 43.20600 -2.30632 38098 ft 472 kts 26°
2026-04-30 13:50 43.29171 -2.23984 38102 ft 471 kts 26°
2026-04-30 13:51 43.34843 -2.19575 38106 ft 472 kts 27°
2026-04-30 13:51 43.40553 -2.15129 38109 ft 472 kts 27°
2026-04-30 13:52 43.46255 -2.10674 38113 ft 471 kts 27°
2026-04-30 13:52 43.51954 -2.06213 38114 ft 471 kts 27°
2026-04-30 13:53 43.57618 -2.01774 38114 ft 471 kts 27°
2026-04-30 13:53 43.63313 -1.97296 38108 ft 471 kts 27°
2026-04-30 13:54 43.69077 -1.93013 38108 ft 470 kts 24°
2026-04-30 13:54 43.74989 -1.89149 38113 ft 470 kts 23°
2026-04-30 13:55 43.80799 -1.85117 38114 ft 470 kts 25°
2026-04-30 13:55 43.86617 -1.80999 38114 ft 470 kts 24°
2026-04-30 13:56 43.92472 -1.76966 38114 ft 470 kts 24°
2026-04-30 13:56 43.98317 -1.72894 38114 ft 470 kts 25°
2026-04-30 13:57 44.04113 -1.68824 38114 ft 470 kts 24°
2026-04-30 13:57 44.09958 -1.64735 38114 ft 470 kts 24°
2026-04-30 13:58 44.18710 -1.58588 38114 ft 469 kts 25°
2026-04-30 13:59 44.24535 -1.54482 38114 ft 469 kts 25°
2026-04-30 13:59 44.30326 -1.50394 38114 ft 470 kts 25°
2026-04-30 14:00 44.36157 -1.46267 38114 ft 470 kts 25°
2026-04-30 14:00 44.44887 -1.40072 38115 ft 468 kts 25°
2026-04-30 14:01 44.50689 -1.35942 38114 ft 468 kts 25°
2026-04-30 14:01 44.56452 -1.31831 38116 ft 468 kts 25°
2026-04-30 14:02 44.62251 -1.27685 38113 ft 467 kts 25°
2026-04-30 14:02 44.68040 -1.23536 38116 ft 467 kts 25°
2026-04-30 14:03 44.73828 -1.19382 38117 ft 467 kts 26°
2026-04-30 14:03 44.79568 -1.15249 38117 ft 467 kts 26°
2026-04-30 14:04 44.85338 -1.11087 38115 ft 465 kts 26°
2026-04-30 14:04 44.91094 -1.06924 38114 ft 465 kts 26°
2026-04-30 14:05 44.96846 -1.02758 38114 ft 465 kts 26°
2026-04-30 14:05 45.02596 -0.98582 38115 ft 465 kts 26°
2026-04-30 14:06 45.11180 -0.92328 38114 ft 464 kts 26°
2026-04-30 14:07 45.19784 -0.86037 38115 ft 464 kts 27°
2026-04-30 14:08 45.28201 -0.79225 38114 ft 464 kts 30°
2026-04-30 14:08 45.36562 -0.72430 38115 ft 464 kts 28°
2026-04-30 14:09 45.42173 -0.67893 38116 ft 464 kts 29°
2026-04-30 14:10 45.50562 -0.61015 38116 ft 464 kts 29°
2026-04-30 14:10 45.56128 -0.56475 38115 ft 464 kts 29°
2026-04-30 14:11 45.61716 -0.51889 38117 ft 463 kts 29°
2026-04-30 14:11 45.67296 -0.47299 38117 ft 463 kts 29°
2026-04-30 14:12 45.72881 -0.42697 38118 ft 463 kts 29°
2026-04-30 14:12 45.78464 -0.38087 38115 ft 463 kts 30°
2026-04-30 14:13 45.84006 -0.33496 38117 ft 463 kts 29°
2026-04-30 14:13 45.89585 -0.28866 38116 ft 463 kts 29°
2026-04-30 14:14 45.95160 -0.24229 38116 ft 463 kts 30°
2026-04-30 14:14 46.00734 -0.19583 38116 ft 463 kts 29°
2026-04-30 14:15 46.06259 -0.14967 38116 ft 461 kts 30°
2026-04-30 14:15 46.11791 -0.10330 38116 ft 459 kts 30°
2026-04-30 14:16 46.17307 -0.05699 38117 ft 459 kts 30°
2026-04-30 14:16 46.22823 -0.01055 38116 ft 459 kts 30°
2026-04-30 14:17 46.28309 0.03570 38115 ft 460 kts 30°
2026-04-30 14:17 46.33852 0.08257 38116 ft 462 kts 31°
2026-04-30 14:18 46.39408 0.12971 38115 ft 463 kts 30°
2026-04-30 14:18 46.47736 0.20049 38116 ft 462 kts 31°
2026-04-30 14:19 46.55996 0.27095 38116 ft 461 kts 31°
2026-04-30 14:20 46.61520 0.31824 38116 ft 460 kts 31°
2026-04-30 14:20 46.69782 0.38914 38116 ft 459 kts 31°
2026-04-30 14:21 46.75274 0.43640 38117 ft 458 kts 31°
2026-04-30 14:22 46.83468 0.50717 38117 ft 459 kts 31°
2026-04-30 14:22 46.91697 0.57848 38112 ft 458 kts 31°
2026-04-30 14:23 47.02639 0.67212 38110 ft 456 kts 24°
2026-04-30 14:24 47.08748 0.69590 38123 ft 456 kts
2026-04-30 14:24 47.11913 0.69970 38112 ft 456 kts
2026-04-30 14:25 47.24589 0.71219 38098 ft 456 kts
2026-04-30 14:26 47.34039 0.72237 38090 ft 456 kts
2026-04-30 14:27 47.43537 0.73223 38088 ft 456 kts
2026-04-30 14:27 47.48790 0.73887 38088 ft 456 kts 10°
2026-04-30 14:28 47.58886 0.78409 38092 ft 457 kts 19°
2026-04-30 14:28 47.64897 0.81416 38089 ft 455 kts 19°
2026-04-30 14:29 47.75868 0.86817 38099 ft 453 kts 19°
2026-04-30 14:31 47.90852 0.94307 38098 ft 455 kts 19°
2026-04-30 14:31 47.99780 0.98842 38104 ft 453 kts 19°
2026-04-30 14:32 48.08717 1.03372 38115 ft 451 kts 19°
2026-04-30 14:33 48.14658 1.06404 38116 ft 451 kts 20°
2026-04-30 14:33 48.23530 1.10938 38118 ft 451 kts 19°
2026-04-30 14:34 48.29475 1.13961 38116 ft 451 kts 20°
2026-04-30 14:34 48.35420 1.16996 38124 ft 451 kts 20°
2026-04-30 14:35 48.44320 1.21559 38128 ft 451 kts 20°
2026-04-30 14:36 48.50259 1.24611 38134 ft 451 kts 20°
2026-04-30 14:36 48.56156 1.27648 38134 ft 451 kts 20°
2026-04-30 14:37 48.62102 1.30640 38134 ft 450 kts 19°
2026-04-30 14:37 48.68054 1.33620 38140 ft 451 kts 20°
2026-04-30 14:38 48.74000 1.36637 38138 ft 451 kts 20°
2026-04-30 14:38 48.79950 1.39656 38139 ft 451 kts 20°
2026-04-30 14:39 48.85854 1.42653 38144 ft 450 kts 20°
2026-04-30 14:39 48.91788 1.45678 38149 ft 450 kts 20°
2026-04-30 14:40 49.00854 1.49388 38156 ft 452 kts 10°
2026-04-30 14:40 49.07074 1.50857 38143 ft 452 kts
2026-04-30 14:41 49.13293 1.52276 38145 ft 452 kts 10°
2026-04-30 14:41 49.19463 1.53734 38148 ft 452 kts 10°
2026-04-30 14:42 49.25668 1.55327 38152 ft 451 kts 16°
2026-04-30 14:42 49.31540 1.58602 38161 ft 448 kts 23°
2026-04-30 14:43 49.37321 1.62199 38157 ft 448 kts 24°
2026-04-30 14:43 49.43059 1.65783 38160 ft 448 kts 23°
2026-04-30 14:44 49.48841 1.69355 38164 ft 448 kts 23°
2026-04-30 14:44 49.54617 1.72958 38170 ft 448 kts 24°
2026-04-30 14:45 49.60297 1.76831 38174 ft 445 kts 32°
2026-04-30 14:45 49.65217 1.82570 38180 ft 444 kts 41°
2026-04-30 14:46 49.69934 1.88631 38175 ft 444 kts 41°
2026-04-30 14:46 49.74683 1.94742 37784 ft 446 kts 41°
2026-04-30 14:47 49.77066 1.97779 37325 ft 440 kts 41°
2026-04-30 14:47 49.79401 2.00756 36893 ft 430 kts 42°
2026-04-30 14:47 49.81674 2.03672 36489 ft 420 kts 42°
2026-04-30 14:47 49.83890 2.06529 36091 ft 410 kts 43°
2026-04-30 14:48 49.86066 2.09342 35700 ft 406 kts 43°
2026-04-30 14:48 49.88229 2.12138 35306 ft 404 kts 43°
2026-04-30 14:48 49.90353 2.14883 34922 ft 402 kts 43°
2026-04-30 14:48 49.92497 2.17652 34530 ft 400 kts 43°
2026-04-30 14:49 49.94629 2.20408 34148 ft 398 kts 44°
2026-04-30 14:49 49.96750 2.23157 33763 ft 396 kts 44°
2026-04-30 14:49 49.98860 2.25896 33385 ft 395 kts 44°
2026-04-30 14:49 50.00961 2.28626 33001 ft 393 kts 44°
2026-04-30 14:50 50.05132 2.34055 32248 ft 389 kts 44°
2026-04-30 14:50 50.07197 2.36748 31870 ft 387 kts 44°
2026-04-30 14:51 50.11270 2.42066 31131 ft 383 kts 44°
2026-04-30 14:51 50.13304 2.44728 30763 ft 381 kts 44°
2026-04-30 14:51 50.17345 2.50024 30030 ft 378 kts 44°
2026-04-30 14:52 50.19453 2.52425 29967 ft 370 kts 39°
2026-04-30 14:52 50.25783 2.59249 29864 ft 385 kts 38°
2026-04-30 14:53 50.30203 2.63904 29400 ft 379 kts 38°
2026-04-30 14:53 50.32387 2.66216 28997 ft 379 kts 38°
2026-04-30 14:54 50.36687 2.70847 28186 ft 377 kts 38°
2026-04-30 14:54 50.40962 2.75468 27562 ft 370 kts 38°
2026-04-30 14:55 50.45176 2.80012 26879 ft 366 kts 38°
2026-04-30 14:55 50.47264 2.82269 26524 ft 363 kts 38°
2026-04-30 14:55 50.51399 2.86752 25838 ft 359 kts 38°
2026-04-30 14:56 50.55460 2.91162 25146 ft 355 kts 38°
2026-04-30 14:56 50.59500 2.95555 24457 ft 351 kts 38°
2026-04-30 14:57 50.61502 2.97739 24119 ft 349 kts 38°
2026-04-30 14:57 50.65468 3.02070 23445 ft 345 kts 38°
2026-04-30 14:58 50.69391 3.06360 22729 ft 342 kts 38°
2026-04-30 14:58 50.71341 3.08495 22372 ft 340 kts 38°
2026-04-30 14:58 50.75180 3.12709 21660 ft 337 kts 38°
2026-04-30 14:59 50.79006 3.16915 20935 ft 334 kts 38°
2026-04-30 15:00 50.84681 3.23170 19835 ft 329 kts 38°
2026-04-30 15:00 50.88406 3.27285 19093 ft 324 kts 38°
2026-04-30 15:01 50.92095 3.31372 18299 ft 322 kts 38°
2026-04-30 15:01 50.93925 3.33398 17920 ft 320 kts 38°
2026-04-30 15:01 50.97549 3.37423 17155 ft 317 kts 38°
2026-04-30 15:02 50.99321 3.39395 16763 ft 314 kts 38°
2026-04-30 15:02 51.01107 3.41384 16346 ft 314 kts 38°
2026-04-30 15:03 51.06551 3.47457 16257 ft 316 kts 38°
2026-04-30 15:03 51.10160 3.51489 16257 ft 317 kts 39°
2026-04-30 15:04 51.13755 3.55517 16264 ft 316 kts 39°
2026-04-30 15:04 51.19124 3.61548 16262 ft 316 kts 39°
2026-04-30 15:05 51.24462 3.67552 15770 ft 308 kts 39°
2026-04-30 15:06 51.27971 3.71519 14784 ft 309 kts 39°
2026-04-30 15:06 51.31450 3.75454 13965 ft 304 kts 39°
2026-04-30 15:07 51.34890 3.79347 13147 ft 301 kts 39°
2026-04-30 15:07 51.38255 3.83172 12303 ft 297 kts 39°
2026-04-30 15:08 51.41608 3.86990 11464 ft 294 kts 40°
2026-04-30 15:08 51.46581 3.92649 10217 ft 290 kts 40°
2026-04-30 15:09 51.49854 3.96392 9398 ft 288 kts 40°
2026-04-30 15:09 51.53079 4.00085 8554 ft 286 kts 40°
2026-04-30 15:10 51.56308 4.03785 7780 ft 283 kts 41°
2026-04-30 15:11 51.62530 4.10929 6542 ft 256 kts 41°
2026-04-30 15:11 51.65394 4.13919 6064 ft 246 kts 25°
2026-04-30 15:12 51.70387 4.15732 4947 ft 245 kts 17°
2026-04-30 15:13 51.73699 4.16777 4279 ft 239 kts 18°
2026-04-30 15:14 51.79955 4.18843 3133 ft 209 kts 19°
2026-04-30 15:14 51.84063 4.20218 3027 ft 187 kts 19°
2026-04-30 15:16 51.88347 4.25678 2494 ft 153 kts 63°
2026-04-30 15:17 51.90512 4.31071 1725 ft 135 kts 63°
2026-04-30 15:18 51.93085 4.37504 773 ft 136 kts 60°
2026-04-30 15:19 51.94607 4.41321 259 ft 131 kts 62°